Wind_Speed
29 31 32 32 26 26 23 29 30 28 28 29 30 27 26 24 22 20 20 18 17 17 17 18 19 20 22 20 19 20 19 15 11 14 15 16 19 22 25 25 28 35 39 40 40 39 40
26 30 31 32 31 36 31 27 28 30 30 30 30 30 28 26 23 22 21 19 18 18 17 16 17 18 18 20 17 19 20 22 20 19 18 17 14 15 23 25 30 31 30 38 40 40 41
31 29 30 33 34 34 33 29 23 29 32 31 30 31 30 28 25 23 22 20 20 20 19 16 13 11 13 10 16 16 16 18 21 22 22 23 25 24 21 24 28 32 35 37 34 34 41
32 32 34 34 34 35 35 36 36 26 28 32 30 31 31 28 27 24 23 22 21 22 23 22 20 18 16 16 15 15 16 17 19 18 16 19 20 21 25 23 21 20 28 33 31 32 33
35 35 35 34 37 35 36 38 41 42 30 30 29 26 30 29 28 26 23 23 23 24 26 26 24 21 19 22 20 20 18 19 18 18 17 18 20 22 22 23 25 24 27 22 15 19 23
40 38 36 35 34 35 36 38 40 41 37 31 31 27 26 27 28 27 25 24 24 24 27 28 28 21 20 17 13 11 10 12 17 19 21 22 25 28 27 24 22 18 23 26 26 22 22
41 39 37 36 37 36 36 37 40 42 47 34 30 28 28 26 29 28 27 25 24 25 28 27 17 10 9 12 15 18 18 18 19 22 24 26 33 37 36 31 31 32 28 27 22 14 22
46 44 43 40 39 34 36 36 36 41 45 50 32 33 30 29 26 27 29 27 22 23 20 21 22 24 25 25 25 24 20 20 21 25 24 28 37 36 35 36 37 38 40 39 37 33 30
50 50 41 42 34 29 29 29 30 34 40 37 41 35 32 29 32 30 29 23 21 21 22 23 23 25 23 28 30 25 23 21 22 22 25 30 24 19 29 33 34 34 33 33 38 34 37
49 47 43 39 25 19 22 27 25 26 38 38 42 36 33 33 33 34 30 23 19 17 11 14 17 18 21 27 27 22 21 18 24 24 21 26 31 33 30 26 27 34 31 26 27 23 16
47 42 38 42 24 17 26 29 30 26 25 47 31 38 36 37 38 34 23 20 19 12 2 8 15 13 11 14 8 6 9 21 28 26 25 24 22 20 30 32 24 25 20 23 23 24 26
42 40 43 42 25 23 26 23 24 27 26 39 21 33 35 38 33 30 23 23 18 9 6 10 12 14 13 12 10 8 10 14 21 29 33 30 32 28 28 24 29 26 19 19 17 22 20
37 40 43 41 26 22 23 23 21 21 25 27 39 29 30 39 35 31 28 28 15 8 7 10 14 15 11 11 11 12 12 19 23 18 25 28 35 39 33 28 23 24 23 4 6 9 8
40 40 42 37 24 19 21 29 25 16 13 23 36 35 34 35 34 33 32 31 8 7 14 8 13 14 13 11 13 15 17 22 27 25 16 14 13 30 32 34 28 28 34 11 6 4 5
40 41 40 37 26 20 19 33 24 14 11 17 33 29 30 34 29 27 33 32 18 11 14 13 12 12 12 14 11 9 20 25 24 26 18 6 13 18 18 27 35 17 31 38 19 18 6
37 39 38 38 26 19 27 31 30 11 9 21 29 32 25 42 34 29 34 29 18 14 11 12 10 9 9 11 13 10 11 6 15 24 22 16 14 21 17 20 23 32 17 13 22 5 7
34 36 36 35 26 18 26 28 30 16 7 7 27 20 26 38 35 34 39 31 27 18 13 10 12 13 13 12 12 11 8 7 8 10 19 25 16 10 17 27 32 31 37 18 16 18 4
34 34 33 33 28 22 24 26 31 20 12 9 30 23 26 37 45 47 35 29 24 26 20 18 15 14 15 15 13 11 16 9 6 8 18 23 14 21 36 29 27 33 36 40 10 8 22
32 32 31 31 30 20 21 21 29 18 11 10 14 17 26 43 37 44 36 30 23 18 15 11 13 15 12 15 11 14 12 4 11 14 12 19 14 12 10 18 35 34 39 35 42 14 23
30 30 30 29 30 15 16 21 26 20 6 14 20 16 34 45 36 38 36 31 29 21 14 14 13 14 10 17 22 9 8 3 6 11 19 25 26 24 18 14 9 22 26 37 40 30 33
30 29 28 28 29 13 12 20 29 17 5 21 24 27 42 48 23 39 24 18 23 18 16 12 16 17 16 18 20 23 18 14 19 16 22 25 35 37 42 40 38 32 24 35 45 51 31
32 27 25 26 26 14 11 13 14 12 4 18 14 22 37 24 40 36 29 30 19 13 14 14 16 7 11 25 23 0 10 13 16 20 24 32 37 29 40 41 34 41 33 29 42 44 47
32 26 24 24 23 16 10 11 7 5 17 12 16 11 31 21 36 39 36 27 16 19 16 14 7 7 13 19 20 21 16 16 19 27 23 25 28 15 11 0 8 10 27 38 38 39 37
30 25 23 23 25 18 10 8 2 3 12 19 21 19 30 24 24 37 27 22 18 13 16 11 11 11 7 12 15 18 21 19 22 24 27 25 25 13 7 6 1 9 9 19 28 33 34
29 26 24 24 25 18 11 4 4 8 15 29 18 15 19 29 20 22 22 19 13 15 18 16 15 13 11 11 15 12 13 21 25 25 23 15 17 8 7 7 2 11 5 20 31 25 23
28 26 24 24 24 18 10 5 7 11 19 34 26 20 19 22 22 19 16 15 12 14 14 15 14 15 16 14 13 8 6 6 4 5 9 15 15 10 8 4 4 8 7 4 5 7 14
27 26 25 22 22 18 10 6 10 15 19 17 26 24 26 25 20 19 17 15 17 16 14 13 13 18 18 18 20 11 9 6 5 4 4 6 7 9 4 4 3 3 6 9 11 4 10
27 25 23 20 20 17 9 9 12 13 22 20 23 28 27 16 17 17 17 15 15 12 11 11 12 9 15 18 19 13 8 10 6 6 3 6 4 3 4 3 3 3 8 6 2 3 16
26 23 23 19 17 17 10 11 15 13 23 27 23 16 14 19 12 19 14 16 13 14 14 12 12 9 14 18 19 14 7 5 10 3 10 7 7 2 5 2 2 3 5 6 6 7 9
Wind_Direction
303 299 295 278 285 276 276 291 282 276 270 268 266 262 263 262 260 261 259 258 260 265 268 265 261 256 257 254 250 261 267 259 240 243 245 242 244 244 249 253 251 250 250 248 253 252 250
307 303 298 292 280 268 273 272 277 274 271 267 264 259 259 258 258 256 257 254 253 259 265 264 263 258 255 258 245 243 251 258 259 253 243 231 231 245 255 254 251 252 253 254 250 247 251
316 307 298 293 287 277 271 252 269 279 267 265 262 259 255 254 253 254 254 251 248 251 256 256 260 255 248 243 243 246 247 253 251 252 245 242 245 251 253 259 256 253 256 253 253 254 251
316 308 302 295 289 284 274 254 246 260 265 262 260 257 253 252 251 250 251 249 245 245 251 254 255 253 253 260 260 258 256 254 254 251 248 247 240 237 239 239 248 260 261 263 264 255 254
318 313 307 297 290 285 277 265 250 246 257 256 255 249 251 248 245 246 246 249 245 244 248 253 255 255 258 257 262 257 255 250 247 248 249 240 236 240 239 242 254 259 253 256 268 264 255
320 315 311 307 297 286 278 270 258 243 239 247 244 245 240 241 238 239 241 242 244 244 247 251 255 260 251 249 243 238 225 233 237 237 236 234 233 233 234 231 234 245 257 263 270 271 257
321 319 315 310 302 294 281 273 263 243 232 243 246 233 234 238 243 235 235 239 239 245 249 255 256 252 229 227 238 252 258 251 244 238 233 233 229 230 234 240 245 252 259 264 262 257 266
328 326 323 319 312 298 288 280 266 253 237 233 245 229 228 234 238 238 230 232 237 247 257 256 257 253 258 256 253 249 251 247 243 243 241 237 240 242 243 245 250 255 258 260 264 262 262
333 332 332 325 317 299 290 300 284 254 236 238 230 240 213 226 222 238 232 228 235 244 256 259 259 257 251 256 257 251 246 249 246 248 246 245 251 246 244 247 252 256 257 257 260 267 263
332 332 331 326 320 311 301 296 285 273 229 228 229 225 201 210 223 227 231 221 225 239 263 264 247 249 241 240 254 259 247 241 243 248 251 257 252 248 249 256 251 258 258 264 263 265 262
334 333 332 331 304 295 294 328 283 269 252 214 225 209 201 209 221 221 224 220 212 211 314 224 215 210 193 194 216 233 221 235 243 251 240 244 260 257 248 247 253 249 261 258 262 259 268
332 329 330 329 310 305 313 315 295 276 275 234 208 199 201 208 210 214 218 207 197 188 252 209 191 195 193 204 221 220 222 219 239 246 254 255 261 257 258 257 249 249 258 255 249 247 248
338 333 329 332 321 302 310 295 321 273 270 243 225 217 208 206 205 208 208 192 173 203 203 213 197 193 210 218 224 229 243 227 227 228 245 250 249 251 255 254 243 231 230 237 225 210 238
337 336 336 338 320 296 313 329 356 292 257 227 214 219 198 199 200 204 200 184 187 216 209 194 190 188 211 232 244 243 237 244 233 232 238 235 247 242 236 236 231 228 217 213 211 223 230
332 333 335 339 326 301 316 349 346 324 276 243 227 207 196 206 192 182 191 187 207 213 215 207 194 216 233 233 224 235 234 245 249 230 224 247 246 256 245 247 223 208 212 230 240 269 276
329 331 335 338 322 302 318 345 351 352 275 249 239 214 200 188 184 182 197 203 203 206 205 211 214 220 206 204 204 216 235 272 248 246 236 238 255 249 258 229 229 231 243 220 212 212 246
330 330 332 334 323 292 303 331 354 336 350 247 229 236 195 189 186 185 200 206 212 217 218 220 237 237 224 216 221 229 246 266 254 242 215 217 231 248 221 221 224 214 226 223 227 226 217
330 330 332 332 330 298 301 313 337 342 18 235 225 236 195 183 171 187 199 201 210 221 238 238 245 237 225 226 236 239 249 268 293 253 212 232 250 248 247 254 247 238 237 214 213 208 231
331 330 332 331 331 303 299 312 319 337 339 176 225 215 198 186 180 191 196 207 207 213 225 241 236 235 233 225 220 246 272 325 229 244 233 239 242 257 265 244 236 232 228 224 226 218 231
332 332 332 334 332 307 286 300 309 326 330 171 199 177 186 189 193 198 201 217 213 230 249 240 229 241 231 237 220 233 250 329 312 250 248 262 253 238 240 243 237 220 230 218 217 227 238
334 334 334 336 336 317 278 294 302 331 244 181 200 172 182 193 188 196 202 211 224 237 247 237 240 243 239 232 241 240 249 274 271 266 260 260 263 268 263 263 261 254 239 214 212 220 222
336 335 337 340 339 329 278 294 320 356 211 213 187 171 187 189 199 205 210 221 229 240 221 237 254 272 238 232 230 57 244 262 280 268 262 261 257 271 276 290 269 242 232 223 223 228 234
338 338 338 339 338 338 294 299 344 14 181 166 178 194 198 199 202 207 214 221 234 232 242 248 280 248 249 264 258 222 247 266 283 286 293 271 267 278 277 27 156 226 225 213 216 220 228
340 339 337 337 338 340 305 301 332 200 187 167 187 185 187 197 200 203 214 214 227 219 232 239 275 265 289 264 237 235 249 263 269 269 278 280 294 281 301 339 347 326 225 216 209 216 218
341 339 334 336 341 338 319 310 206 192 197 187 182 192 191 204 207 208 218 228 225 216 232 251 255 262 252 288 242 265 259 266 268 266 268 275 288 320 335 318 101 20 68 188 210 224 218
339 337 331 331 337 337 314 243 178 186 191 202 213 221 184 199 211 215 208 229 239 257 248 257 257 265 264 247 215 232 232 209 255 279 254 244 263 279 330 337 25 35 43 85 163 284 175
336 335 330 326 332 334 314 221 170 175 189 215 211 189 200 210 218 229 228 233 237 241 257 264 268 276 242 222 215 227 225 218 202 215 254 238 247 257 275 310 28 26 115 142 168 317 203
336 334 332 328 330 331 310 230 181 166 191 200 205 211 202 215 218 220 220 250 237 242 249 268 302 242 194 197 207 226 229 218 232 243 249 219 216 226 195 259 326 151 139 177 273 227 185
337 335 331 324 326 328 306 220 182 163 187 195 170 177 202 212 222 229 229 229 229 251 258 260 282 260 192 196 212 220 227 219 226 258 226 224 219 274 234 297 182 170 187 159 112 91 159
Height
3066 3063 3060 3059 3057 3056 3055 3055 3054 3053 3052 3052 3053 3053 3055 3056 3056 3056 3056 3056 3058 3059 3058 3058 3060 3061 3061 3063 3064 3065 3065 3068 3069 3070 3072 3073 3074 3076 3077 3079 3081 3079 3081 3083 3084 3088 3089
3061 3057 3054 3051 3049 3048 3048 3048 3046 3046 3046 3045 3046 3047 3049 3050 3051 3051 3051 3052 3054 3055 3055 3056 3057 3058 3059 3060 3059 3060 3062 3062 3065 3067 3068 3070 3072 3073 3072 3073 3075 3074 3074 3075 3077 3080 3081
3054 3051 3047 3043 3040 3038 3039 3040 3039 3039 3038 3038 3039 3041 3042 3043 3045 3046 3047 3047 3049 3051 3051 3053 3054 3055 3055 3057 3055 3056 3058 3058 3060 3063 3065 3066 3067 3068 3068 3069 3070 3068 3068 3070 3071 3075 3076
3048 3044 3040 3036 3032 3030 3028 3029 3030 3028 3028 3030 3032 3033 3035 3037 3039 3041 3042 3043 3044 3045 3047 3049 3049 3052 3052 3052 3053 3054 3055 3055 3055 3058 3060 3061 3061 3063 3063 3065 3065 3066 3064 3064 3067 3071 3072
3041 3036 3031 3027 3022 3020 3018 3016 3017 3018 3020 3020 3023 3025 3027 3030 3032 3035 3036 3038 3039 3040 3041 3043 3046 3048 3049 3046 3047 3048 3050 3050 3051 3052 3054 3056 3056 3057 3060 3062 3064 3062 3059 3059 3061 3065 3068
3032 3028 3022 3018 3013 3009 3006 3004 3004 3006 3010 3012 3013 3018 3021 3023 3024 3028 3031 3032 3033 3035 3036 3036 3038 3045 3044 3043 3041 3042 3045 3046 3047 3049 3051 3052 3051 3052 3054 3058 3054 3058 3059 3058 3058 3061 3062
3024 3018 3013 3008 3002 2998 2995 2993 2991 2994 2999 3000 3004 3009 3014 3017 3018 3021 3024 3027 3031 3032 3030 3033 3033 3037 3037 3038 3038 3038 3039 3042 3043 3043 3045 3047 3046 3041 3048 3052 3054 3056 3056 3055 3055 3057 3055
3012 3007 3001 2996 2991 2987 2982 2980 2979 2980 2986 2991 2994 2998 3004 3010 3013 3014 3016 3019 3024 3025 3026 3026 3027 3030 3030 3031 3033 3033 3036 3037 3037 3038 3041 3042 3035 3041 3044 3046 3049 3050 3050 3049 3050 3054 3054
3002 2994 2988 2983 2978 2975 2972 2969 2967 2967 2972 2979 2985 2988 2994 3002 3006 3007 3010 3016 3019 3020 3021 3021 3021 3021 3025 3024 3023 3027 3031 3032 3032 3033 3034 3035 3033 3037 3038 3040 3042 3042 3043 3047 3047 3050 3047
2998 2991 2983 2976 2971 2969 2967 2963 2960 2958 2960 2968 2974 2979 2984 2992 2999 3001 3005 3011 3014 3017 3019 3015 3013 3012 3016 3016 3018 3021 3023 3028 3028 3028 3033 3029 3029 3031 3033 3032 3038 3035 3040 3042 3044 3046 3041
2994 2986 2979 2971 2966 2963 2959 2953 2952 2950 2950 2956 2961 2969 2976 2981 2986 2994 3005 3008 3010 3016 3019 3009 3007 3009 3010 3014 3016 3016 3018 3020 3022 3024 3028 3021 3022 3025 3024 3026 3032 3031 3036 3037 3039 3039 3037
2989 2982 2974 2966 2960 2958 2954 2949 2945 2944 2943 2946 2950 2955 2965 2972 2981 2992 2998 3002 3009 3015 3008 3002 3002 3004 3007 3009 3011 3013 3015 3017 3018 3019 3017 3018 3019 3019 3019 3024 3027 3030 3033 3034 3034 3035 3024
2984 2977 2968 2961 2955 2953 2949 2944 2939 2938 2936 2939 2945 2950 2957 2966 2975 2984 2990 2996 3006 3003 3000 2999 2999 3001 3004 3006 3008 3009 3011 3012 3013 3015 3013 3013 3010 3011 3015 3019 3022 3024 3030 3028 3026 3023 3012
2981 2973 2964 2957 2951 2948 2945 2939 2933 2932 2931 2933 2941 2947 2949 2960 2969 2976 2984 2992 2994 2991 2993 2994 2996 2999 3002 3004 3004 3005 3006 3006 3006 3007 3008 3006 3003 3004 3007 3009 3013 3013 3018 3019 3017 3015 3009
2977 2968 2961 2954 2949 2945 2941 2935 2932 2927 2927 2929 2935 2939 2942 2949 2961 2971 2979 2984 2984 2986 2990 2992 2995 2997 2998 2999 3002 3001 3000 2997 2998 3001 3004 3003 3000 2999 3001 3005 3007 3006 3008 3008 3012 3009 3007
2972 2965 2958 2951 2945 2943 2938 2933 2929 2925 2925 2926 2927 2934 2936 2950 2960 2968 2975 2977 2981 2984 2986 2989 2992 2993 2993 2995 2997 2996 2994 2992 2993 2995 2998 2998 2996 2993 2995 2997 2998 2999 3005 3008 3006 3005 3003
2968 2961 2954 2947 2942 2940 2936 2933 2927 2924 2922 2924 2927 2935 2936 2948 2957 2964 2965 2973 2978 2981 2984 2988 2989 2990 2990 2991 2992 2991 2991 2991 2989 2988 2990 2993 2995 2993 2991 2987 2988 2993 2994 2999 3000 3000 2997
2963 2956 2950 2943 2938 2935 2933 2931 2925 2922 2919 2922 2926 2934 2936 2945 2953 2958 2961 2968 2974 2978 2981 2983 2985 2986 2986 2988 2987 2988 2985 2987 2986 2987 2987 2987 2987 2982 2980 2983 2985 2985 2984 2991 2991 2992 2991
2959 2952 2946 2940 2934 2930 2930 2928 2924 2919 2918 2922 2928 2934 2936 2944 2946 2952 2960 2966 2971 2974 2978 2980 2980 2981 2982 2983 2985 2984 2984 2984 2983 2984 2984 2984 2981 2979 2974 2975 2973 2972 2974 2981 2986 2987 2984
2954 2948 2941 2936 2931 2926 2926 2925 2923 2920 2918 2923 2928 2931 2933 2941 2944 2952 2958 2963 2969 2972 2975 2975 2977 2978 2979 2978 2980 2980 2981 2982 2982 2983 2982 2980 2974 2969 2963 2961 2962 2962 2964 2969 2979 2982 2973
2950 2944 2938 2933 2928 2923 2923 2921 2922 2919 2917 2921 2927 2928 2930 2934 2942 2951 2959 2963 2968 2970 2971 2972 2972 2973 2975 2975 2975 2976 2979 2980 2980 2978 2977 2974 2964 2960 2953 2953 2955 2957 2961 2962 2962 2961 2969
2946 2940 2935 2931 2926 2921 2921 2922 2919 2917 2918 2924 2926 2928 2933 2937 2945 2952 2957 2960 2964 2966 2968 2968 2969 2970 2971 2970 2972 2974 2976 2977 2975 2973 2972 2967 2959 2955 2946 2941 2937 2945 2954 2955 2958 2961 2962
2942 2937 2932 2928 2924 2920 2916 2915 2914 2916 2919 2920 2922 2927 2934 2938 2943 2949 2951 2956 2960 2962 2964 2964 2966 2967 2967 2966 2967 2970 2973 2974 2973 2969 2968 2964 2960 2956 2945 2937 2938 2943 2940 2945 2953 2958 2959
2939 2935 2930 2926 2921 2918 2917 2917 2916 2918 2918 2919 2924 2928 2933 2937 2940 2944 2950 2955 2957 2959 2961 2963 2963 2964 2966 2963 2964 2966 2968 2969 2968 2966 2964 2961 2959 2953 2946 2944 2942 2938 2935 2944 2952 2956 2956
2936 2932 2927 2923 2920 2915 2912 2911 2913 2914 2916 2920 2925 2929 2932 2936 2942 2946 2950 2953 2954 2956 2957 2959 2960 2961 2961 2962 2962 2963 2965 2965 2961 2960 2959 2962 2961 2957 2953 2946 2945 2942 2942 2942 2947 2953 2953
2934 2929 2925 2920 2917 2914 2913 2912 2913 2913 2915 2920 2926 2930 2932 2936 2941 2945 2948 2950 2952 2953 2955 2955 2956 2957 2958 2960 2962 2961 2960 2962 2958 2956 2956 2958 2960 2960 2956 2953 2949 2950 2948 2948 2952 2954 2957
2931 2926 2922 2918 2914 2911 2909 2910 2912 2912 2914 2917 2924 2926 2932 2936 2940 2943 2945 2947 2949 2950 2951 2951 2952 2952 2951 2953 2958 2958 2956 2957 2959 2957 2955 2954 2955 2955 2956 2955 2953 2953 2953 2954 2959 2959 2954
2928 2923 2919 2916 2912 2909 2907 2908 2910 2911 2914 2918 2923 2926 2931 2935 2938 2940 2943 2944 2946 2947 2948 2949 2949 2946 2947 2950 2953 2955 2954 2954 2954 2955 2955 2956 2955 2954 2955 2956 2956 2955 2957 2958 2957 2954 2956
2925 2920 2916 2912 2910 2907 2905 2905 2908 2910 2913 2918 2920 2926 2929 2933 2936 2938 2939 2941 2943 2944 2945 2944 2945 2944 2943 2947 2950 2952 2952 2953 2953 2954 2954 2956 2955 2955 2955 2954 2955 2955 2956 2956 2957 2956 2957